AEE34MK LGMK-LGRP

Flight info

Callsign AEE34MK
Flight time N/A
Altitude 19000
Route PIDAX UL995 CODIC
Aircraft A21N/M-SDE2E3FGHIRWXY/LB1

Departure

Time 2026-05-01 11:11
Airport Mykonos Island National Airport (LGMK)

Arrival

Time N/A
Airport Rhodes International Airport "Diagoras" (LGRP)
Time Latitude Longitude Altitude Speed Heading
2026-05-01 11:01 37.43563 25.34643 411 ft 0 kts 249°
2026-05-01 11:02 37.43593 25.34620 408 ft 0 kts 251°
2026-05-01 11:05 37.43591 25.34617 409 ft 0 kts 239°
2026-05-01 11:06 37.43562 25.34599 412 ft 7 kts 185°
2026-05-01 11:06 37.43552 25.34606 412 ft 1 kts 124°
2026-05-01 11:06 37.43508 25.34670 411 ft 21 kts 136°
2026-05-01 11:07 37.43430 25.34769 407 ft 0 kts 122°
2026-05-01 11:08 37.43422 25.34784 405 ft 8 kts 123°
2026-05-01 11:08 37.43289 25.34922 407 ft 20 kts 161°
2026-05-01 11:09 37.43159 25.34980 407 ft 20 kts 160°
2026-05-01 11:09 37.43036 25.35034 410 ft 18 kts 160°
2026-05-01 11:09 37.42919 25.35086 410 ft 18 kts 160°
2026-05-01 11:10 37.42711 25.35114 411 ft 13 kts 184°
2026-05-01 11:10 37.42684 25.35157 413 ft 5 kts 61°
2026-05-01 11:10 37.42714 25.35168 413 ft 9 kts 358°
2026-05-01 11:10 37.42767 25.35152 411 ft 6 kts 340°
2026-05-01 11:11 37.42956 25.35069 410 ft 60 kts 341°
2026-05-01 11:11 37.43564 25.34802 407 ft 125 kts 340°
2026-05-01 11:11 37.44446 25.34400 823 ft 135 kts 346°
2026-05-01 11:11 37.45327 25.34032 1584 ft 134 kts 343°
2026-05-01 11:12 37.46201 25.33605 2286 ft 140 kts 343°
2026-05-01 11:12 37.47200 25.33121 2639 ft 168 kts 343°
2026-05-01 11:12 37.48370 25.32553 2911 ft 190 kts 342°
2026-05-01 11:12 37.49690 25.31907 3329 ft 215 kts 342°
2026-05-01 11:13 37.51038 25.30994 4135 ft 227 kts 323°
2026-05-01 11:13 37.51980 25.29379 5001 ft 236 kts 291°
2026-05-01 11:13 37.52082 25.27310 5849 ft 244 kts 257°
2026-05-01 11:13 37.51223 25.25483 6766 ft 247 kts 224°
2026-05-01 11:14 37.49679 25.24545 7646 ft 253 kts 189°
2026-05-01 11:14 37.47910 25.24868 8353 ft 272 kts 158°
2026-05-01 11:14 37.46481 25.26469 9132 ft 281 kts 122°
2026-05-01 11:14 37.45646 25.28716 9898 ft 286 kts 111°
2026-05-01 11:15 37.44953 25.31078 10612 ft 291 kts 111°
2026-05-01 11:15 37.44233 25.33488 11293 ft 296 kts 112°
2026-05-01 11:15 37.43210 25.35724 11984 ft 295 kts 140°
2026-05-01 11:15 37.41506 25.37109 12483 ft 298 kts 162°
2026-05-01 11:16 37.39566 25.38269 12809 ft 320 kts 156°